,,PressureMeas_1m,,PRMeasQMR101_1,,RHStat155_1m_1,,SRMeasQMS101R_1m,,TAStat155_1m_1,,GenWind_1,,GenWind_1,
2017-08-07, 07:00:06,VALID,917.231,VALID,0.0,VALID,90.345,VALID,108.004,VALID,17.685,VALID,114.0,VALID,1.381,
2017-08-07, 07:01:06,VALID,917.234,VALID,0.0,VALID,90.236,VALID,114.655,VALID,17.71,VALID,117.0,VALID,1.429,
2017-08-07, 07:02:06,VALID,917.25,VALID,0.0,VALID,90.355,VALID,118.826,VALID,17.76,VALID,114.0,VALID,1.389,
2017-08-07, 07:03:06,VALID,917.273,VALID,0.0,VALID,90.218,VALID,121.229,VALID,17.798,VALID,119.0,VALID,1.665,
2017-08-07, 07:04:06,VALID,917.285,VALID,0.0,VALID,90.295,VALID,123.22,VALID,17.882,VALID,125.0,VALID,1.398,
2017-08-07, 07:05:06,VALID,917.308,VALID,0.0,VALID,90.013,VALID,124.361,VALID,17.964,VALID,121.0,VALID,1.368,
2017-08-07, 07:06:06,VALID,917.316,VALID,0.0,VALID,90.272,VALID,126.472,VALID,18.036,VALID,125.0,VALID,1.12,
2017-08-07, 07:07:06,VALID,917.319,VALID,0.0,VALID,90.564,VALID,129.089,VALID,18.137,VALID,127.0,VALID,0.968,
2017-08-07, 07:08:06,VALID,917.331,VALID,0.0,VALID,90.337,VALID,133.025,VALID,18.241,VALID,120.0,VALID,1.098,
2017-08-07, 07:09:06,VALID,917.341,VALID,0.0,VALID,89.819,VALID,137.137,VALID,18.359,VALID,125.0,VALID,0.877,
2017-08-07, 07:10:06,VALID,917.364,VALID,0.0,VALID,88.867,VALID,140.557,VALID,18.472,VALID,125.0,VALID,0.949,
2017-08-07, 07:11:06,VALID,917.381,VALID,0.0,VALID,88.267,VALID,143.162,VALID,18.566,VALID,132.0,VALID,0.853,
2017-08-07, 07:12:06,VALID,917.394,VALID,0.0,VALID,87.124,VALID,146.669,VALID,18.689,VALID,131.0,VALID,0.979,
2017-08-07, 07:13:06,VALID,917.406,VALID,0.0,VALID,86.087,VALID,149.98,VALID,18.822,VALID,132.0,VALID,1.048,
2017-08-07, 07:14:06,VALID,917.435,VALID,0.0,VALID,85.815,VALID,152.505,VALID,18.948,VALID,130.0,VALID,1.191,
2017-08-07, 07:15:06,VALID,917.453,VALID,0.0,VALID,85.369,VALID,155.101,VALID,19.041,VALID,128.0,VALID,1.298,
2017-08-07, 07:16:06,VALID,917.451,VALID,0.0,VALID,85.037,VALID,157.714,VALID,19.098,VALID,120.0,VALID,1.461,
2017-08-07, 07:17:06,VALID,917.479,VALID,0.0,VALID,85.328,VALID,160.174,VALID,19.11,VALID,107.0,VALID,1.189,
2017-08-07, 07:18:06,VALID,917.478,VALID,0.0,VALID,85.354,VALID,163.37,VALID,19.106,VALID,111.0,VALID,1.525,
2017-08-07, 07:19:06,VALID,917.48,VALID,0.0,VALID,84.92,VALID,166.299,VALID,19.1,VALID,123.0,VALID,1.565,
2017-08-07, 07:20:06,VALID,917.483,VALID,0.0,VALID,85.393,VALID,170.041,VALID,19.138,VALID,113.0,VALID,1.382,
2017-08-07, 07:21:06,VALID,917.499,VALID,0.0,VALID,86.537,VALID,174.035,VALID,19.208,VALID,107.0,VALID,1.13,
2017-08-07, 07:22:06,VALID,917.512,VALID,0.0,VALID,87.176,VALID,178.286,VALID,19.295,VALID,111.0,VALID,1.182,
2017-08-07, 07:23:06,VALID,917.533,VALID,0.0,VALID,86.933,VALID,181.775,VALID,19.368,VALID,118.0,VALID,1.292,
2017-08-07, 07:24:06,VALID,917.535,VALID,0.0,VALID,85.604,VALID,185.447,VALID,19.467,VALID,118.0,VALID,1.267,
2017-08-07, 07:25:06,VALID,917.544,VALID,0.0,VALID,85.846,VALID,189.131,VALID,19.524,VALID,117.0,VALID,1.24,
2017-08-07, 07:26:06,VALID,917.557,VALID,0.0,VALID,84.524,VALID,192.898,VALID,19.47,VALID,109.0,VALID,1.71,
2017-08-07, 07:27:06,VALID,917.561,VALID,0.0,VALID,83.419,VALID,196.808,VALID,19.385,VALID,103.0,VALID,1.771,
2017-08-07, 07:28:06,VALID,917.566,VALID,0.0,VALID,84.131,VALID,200.675,VALID,19.345,VALID,105.0,VALID,1.811,
2017-08-07, 07:29:06,VALID,917.574,VALID,0.0,VALID,83.32,VALID,203.94,VALID,19.363,VALID,106.0,VALID,2.139,
2017-08-07, 07:30:06,VALID,917.587,VALID,0.0,VALID,82.719,VALID,208.012,VALID,19.415,VALID,110.0,VALID,1.966,
2017-08-07, 07:31:06,VALID,917.592,VALID,0.0,VALID,82.623,VALID,211.7,VALID,19.456,VALID,110.0,VALID,1.904,
2017-08-07, 07:32:06,VALID,917.605,VALID,0.0,VALID,83.278,VALID,214.622,VALID,19.486,VALID,107.0,VALID,1.619,
2017-08-07, 07:33:06,VALID,917.618,VALID,0.0,VALID,83.567,VALID,216.495,VALID,19.547,VALID,111.0,VALID,1.626,
2017-08-07, 07:34:06,VALID,917.636,VALID,0.0,VALID,83.134,VALID,213.435,VALID,19.641,VALID,109.0,VALID,1.645,
2017-08-07, 07:35:06,VALID,917.64,VALID,0.0,VALID,81.847,VALID,211.998,VALID,19.709,VALID,109.0,VALID,1.764,
2017-08-07, 07:36:06,VALID,917.671,VALID,0.0,VALID,81.158,VALID,219.973,VALID,19.787,VALID,106.0,VALID,1.663,
2017-08-07, 07:37:06,VALID,917.678,VALID,0.0,VALID,81.428,VALID,229.126,VALID,19.876,VALID,104.0,VALID,1.515,
2017-08-07, 07:38:06,VALID,917.67,VALID,0.0,VALID,82.896,VALID,234.737,VALID,19.967,VALID,103.0,VALID,1.139,
2017-08-07, 07:39:06,VALID,917.683,VALID,0.0,VALID,83.317,VALID,238.735,VALID,20.105,VALID,127.0,VALID,1.366,
2017-08-07, 07:40:06,VALID,917.685,VALID,0.0,VALID,79.863,VALID,242.168,VALID,20.158,VALID,144.0,VALID,1.789,
2017-08-07, 07:41:06,VALID,917.686,VALID,0.0,VALID,79.317,VALID,247.649,VALID,20.137,VALID,145.0,VALID,1.673,
2017-08-07, 07:42:06,VALID,917.682,VALID,0.0,VALID,79.833,VALID,248.79,VALID,20.132,VALID,152.0,VALID,1.856,
2017-08-07, 07:43:06,VALID,917.694,VALID,0.0,VALID,78.896,VALID,252.33,VALID,20.178,VALID,147.0,VALID,1.978,
2017-08-07, 07:44:06,VALID,917.677,VALID,0.0,VALID,78.238,VALID,254.323,VALID,20.246,VALID,148.0,VALID,2.074,
2017-08-07, 07:45:06,VALID,917.685,VALID,0.0,VALID,77.913,VALID,257.464,VALID,20.297,VALID,152.0,VALID,1.927,
2017-08-07, 07:46:06,VALID,917.695,VALID,0.0,VALID,78.385,VALID,260.261,VALID,20.354,VALID,153.0,VALID,1.757,
2017-08-07, 07:47:06,VALID,917.695,VALID,0.0,VALID,77.078,VALID,262.785,VALID,20.399,VALID,150.0,VALID,1.917,
2017-08-07, 07:48:06,VALID,917.714,VALID,0.0,VALID,76.766,VALID,266.296,VALID,20.419,VALID,152.0,VALID,1.95,
2017-08-07, 07:49:06,VALID,917.73,VALID,0.0,VALID,77.94,VALID,267.827,VALID,20.428,VALID,151.0,VALID,1.918,
2017-08-07, 07:50:06,VALID,917.746,VALID,0.0,VALID,77.367,VALID,270.367,VALID,20.453,VALID,147.0,VALID,1.818,
2017-08-07, 07:51:06,VALID,917.768,VALID,0.0,VALID,77.828,VALID,271.818,VALID,20.458,VALID,144.0,VALID,1.87,
2017-08-07, 07:52:06,VALID,917.773,VALID,0.0,VALID,77.314,VALID,273.303,VALID,20.483,VALID,145.0,VALID,1.936,
2017-08-07, 07:53:06,VALID,917.787,VALID,0.0,VALID,77.177,VALID,276.372,VALID,20.487,VALID,147.0,VALID,1.963,
2017-08-07, 07:54:06,VALID,917.789,VALID,0.0,VALID,77.077,VALID,281.694,VALID,20.511,VALID,151.0,VALID,1.876,
2017-08-07, 07:55:06,VALID,917.801,VALID,0.0,VALID,77.03,VALID,286.662,VALID,20.558,VALID,143.0,VALID,1.666,
2017-08-07, 07:56:06,VALID,917.807,VALID,0.0,VALID,77.826,VALID,290.433,VALID,20.632,VALID,154.0,VALID,1.291,
2017-08-07, 07:57:06,VALID,917.797,VALID,0.0,VALID,77.769,VALID,299.273,VALID,20.727,VALID,145.0,VALID,1.506,
2017-08-07, 07:58:06,VALID,917.805,VALID,0.0,VALID,76.38,VALID,304.393,VALID,20.82,VALID,143.0,VALID,1.407,
2017-08-07, 07:59:06,VALID,917.806,VALID,0.0,VALID,76.437,VALID,310.813,VALID,20.9,VALID,143.0,VALID,1.307,
2017-08-07, 08:00:06,VALID,917.806,VALID,0.0,VALID,76.49,VALID,315.329,VALID,20.963,VALID,142.0,VALID,1.289,
2017-08-07, 08:01:06,VALID,917.84,VALID,0.0,VALID,76.671,VALID,318.021,VALID,21.059,VALID,131.0,VALID,0.882,
2017-08-07, 08:02:06,VALID,917.863,VALID,0.0,VALID,76.993,VALID,322.999,VALID,21.206,VALID,134.0,VALID,0.926,
2017-08-07, 08:03:06,VALID,917.876,VALID,0.0,VALID,76.215,VALID,329.056,VALID,21.328,VALID,151.0,VALID,1.351,
2017-08-07, 08:04:06,VALID,917.886,VALID,0.0,VALID,75.227,VALID,333.362,VALID,21.369,VALID,146.0,VALID,1.218,
2017-08-07, 08:05:06,VALID,917.87,VALID,0.0,VALID,75.52,VALID,338.544,VALID,21.424,VALID,151.0,VALID,1.191,
2017-08-07, 08:06:06,VALID,917.891,VALID,0.0,VALID,75.514,VALID,345.595,VALID,21.495,VALID,149.0,VALID,1.16,
2017-08-07, 08:07:06,VALID,917.892,VALID,0.0,VALID,74.07,VALID,349.647,VALID,21.53,VALID,145.0,VALID,1.592,
2017-08-07, 08:08:06,VALID,917.895,VALID,0.0,VALID,72.875,VALID,353.037,VALID,21.526,VALID,146.0,VALID,1.979,
2017-08-07, 08:09:06,VALID,917.901,VALID,0.0,VALID,73.254,VALID,358.3,VALID,21.483,VALID,144.0,VALID,2.018,
2017-08-07, 08:10:06,VALID,917.901,VALID,0.0,VALID,73.379,VALID,361.617,VALID,21.457,VALID,146.0,VALID,1.941,
2017-08-07, 08:11:06,VALID,917.909,VALID,0.0,VALID,74.311,VALID,365.731,VALID,21.448,VALID,142.0,VALID,1.721,
2017-08-07, 08:12:06,VALID,917.913,VALID,0.0,VALID,75.421,VALID,369.589,VALID,21.482,VALID,145.0,VALID,1.751,
2017-08-07, 08:13:06,VALID,917.927,VALID,0.0,VALID,74.256,VALID,373.32,VALID,21.507,VALID,145.0,VALID,1.705,
2017-08-07, 08:14:06,VALID,917.946,VALID,0.0,VALID,73.156,VALID,377.225,VALID,21.552,VALID,147.0,VALID,1.759,
2017-08-07, 08:15:06,VALID,917.962,VALID,0.0,VALID,73.526,VALID,381.228,VALID,21.627,VALID,147.0,VALID,1.746,
2017-08-07, 08:16:06,VALID,917.984,VALID,0.0,VALID,71.185,VALID,384.979,VALID,21.732,VALID,146.0,VALID,2.021,
2017-08-07, 08:17:06,VALID,918.01,VALID,0.0,VALID,70.44,VALID,388.481,VALID,21.81,VALID,152.0,VALID,2.179,
2017-08-07, 08:18:06,VALID,918.042,VALID,0.0,VALID,69.913,VALID,391.719,VALID,21.915,VALID,149.0,VALID,1.947,
2017-08-07, 08:19:06,VALID,918.056,VALID,0.0,VALID,68.604,VALID,395.293,VALID,22.001,VALID,151.0,VALID,2.14,
2017-08-07, 08:20:06,VALID,918.073,VALID,0.0,VALID,67.739,VALID,398.672,VALID,22.095,VALID,148.0,VALID,2.168,
2017-08-07, 08:21:06,VALID,918.085,VALID,0.0,VALID,67.913,VALID,401.435,VALID,22.227,VALID,146.0,VALID,1.6,
2017-08-07, 08:22:06,VALID,918.105,VALID,0.0,VALID,68.84,VALID,405.181,VALID,22.413,VALID,155.0,VALID,1.48,
2017-08-07, 08:23:06,VALID,918.118,VALID,0.0,VALID,68.487,VALID,408.117,VALID,22.566,VALID,152.0,VALID,1.607,
2017-08-07, 08:24:06,VALID,918.136,VALID,0.0,VALID,68.598,VALID,413.018,VALID,22.596,VALID,150.0,VALID,1.617,
2017-08-07, 08:25:06,VALID,918.147,VALID,0.0,VALID,67.729,VALID,416.856,VALID,22.664,VALID,150.0,VALID,1.975,
2017-08-07, 08:26:06,VALID,918.163,VALID,0.0,VALID,67.957,VALID,418.611,VALID,22.682,VALID,148.0,VALID,1.882,
2017-08-07, 08:27:06,VALID,918.172,VALID,0.0,VALID,68.227,VALID,421.997,VALID,22.677,VALID,152.0,VALID,1.828,
2017-08-07, 08:28:06,VALID,918.173,VALID,0.0,VALID,69.657,VALID,425.405,VALID,22.653,VALID,148.0,VALID,1.925,
2017-08-07, 08:29:06,VALID,918.182,VALID,0.0,VALID,70.28,VALID,429.084,VALID,22.606,VALID,146.0,VALID,1.785,
2017-08-07, 08:30:06,VALID,918.179,VALID,0.0,VALID,71.374,VALID,432.104,VALID,22.461,VALID,145.0,VALID,1.75,
2017-08-07, 08:31:06,VALID,918.179,VALID,0.0,VALID,72.372,VALID,435.908,VALID,22.334,VALID,147.0,VALID,1.827,
2017-08-07, 08:32:06,VALID,918.183,VALID,0.0,VALID,72.751,VALID,439.094,VALID,22.266,VALID,145.0,VALID,1.987,
2017-08-07, 08:33:06,VALID,918.187,VALID,0.0,VALID,72.365,VALID,442.911,VALID,22.256,VALID,147.0,VALID,2.013,
2017-08-07, 08:34:06,VALID,918.198,VALID,0.0,VALID,72.943,VALID,446.113,VALID,22.296,VALID,152.0,VALID,1.985,
2017-08-07, 08:35:06,VALID,918.211,VALID,0.0,VALID,72.919,VALID,450.285,VALID,22.343,VALID,145.0,VALID,1.911,
2017-08-07, 08:36:06,VALID,918.215,VALID,0.0,VALID,71.918,VALID,454.539,VALID,22.494,VALID,139.0,VALID,1.518,
2017-08-07, 08:37:06,VALID,918.218,VALID,0.0,VALID,70.95,VALID,458.24,VALID,22.723,VALID,150.0,VALID,1.629,
2017-08-07, 08:38:06,VALID,918.226,VALID,0.0,VALID,70.111,VALID,462.56,VALID,22.845,VALID,136.0,VALID,1.471,
2017-08-07, 08:39:06,VALID,918.238,VALID,0.0,VALID,69.2,VALID,465.58,VALID,23.016,VALID,156.0,VALID,1.735,
2017-08-07, 08:40:06,VALID,918.252,VALID,0.0,VALID,69.647,VALID,468.409,VALID,23.045,VALID,138.0,VALID,1.534,
2017-08-07, 08:41:06,VALID,918.271,VALID,0.0,VALID,68.847,VALID,472.666,VALID,23.117,VALID,150.0,VALID,1.798,
2017-08-07, 08:42:06,VALID,918.288,VALID,0.0,VALID,67.825,VALID,477.071,VALID,23.044,VALID,146.0,VALID,1.799,
2017-08-07, 08:43:06,VALID,918.301,VALID,0.0,VALID,68.441,VALID,480.703,VALID,22.978,VALID,144.0,VALID,1.91,
2017-08-07, 08:44:06,VALID,918.322,VALID,0.0,VALID,69.382,VALID,484.751,VALID,22.974,VALID,151.0,VALID,1.848,
2017-08-07, 08:45:06,VALID,918.34,VALID,0.0,VALID,69.42,VALID,488.385,VALID,22.972,VALID,157.0,VALID,2.195,
2017-08-07, 08:46:06,VALID,918.348,VALID,0.0,VALID,70.376,VALID,492.145,VALID,22.947,VALID,153.0,VALID,2.105,
2017-08-07, 08:47:06,VALID,918.371,VALID,0.0,VALID,70.706,VALID,495.412,VALID,22.923,VALID,155.0,VALID,1.508,
2017-08-07, 08:48:06,VALID,918.375,VALID,0.0,VALID,71.507,VALID,499.332,VALID,23.011,VALID,152.0,VALID,1.854,
2017-08-07, 08:49:06,VALID,918.376,VALID,0.0,VALID,69.629,VALID,503.284,VALID,23.106,VALID,147.0,VALID,1.878,
2017-08-07, 08:50:06,VALID,918.374,VALID,0.0,VALID,69.432,VALID,506.467,VALID,23.158,VALID,149.0,VALID,1.96,
2017-08-07, 08:51:06,VALID,918.375,VALID,0.0,VALID,69.9,VALID,510.126,VALID,23.182,VALID,151.0,VALID,1.348,
2017-08-07, 08:52:06,VALID,918.377,VALID,0.0,VALID,70.37,VALID,513.869,VALID,23.42,VALID,180.0,VALID,1.352,
2017-08-07, 08:53:06,VALID,918.384,VALID,0.0,VALID,69.033,VALID,517.839,VALID,23.682,VALID,190.0,VALID,0.951,
2017-08-07, 08:54:06,VALID,918.373,VALID,0.0,VALID,67.818,VALID,521.269,VALID,23.927,VALID,169.0,VALID,1.373,
2017-08-07, 08:55:06,VALID,918.367,VALID,0.0,VALID,68.319,VALID,524.674,VALID,24.045,VALID,177.0,VALID,0.765,
2017-08-07, 08:56:06,VALID,918.37,VALID,0.0,VALID,66.315,VALID,527.901,VALID,24.199,VALID,172.0,VALID,1.038,
2017-08-07, 08:57:06,VALID,918.362,VALID,0.0,VALID,66.034,VALID,531.302,VALID,24.327,VALID,135.0,VALID,1.316,
2017-08-07, 08:58:06,VALID,918.373,VALID,0.0,VALID,65.188,VALID,534.84,VALID,24.273,VALID,149.0,VALID,1.738,
2017-08-07, 08:59:06,VALID,918.38,VALID,0.0,VALID,66.28,VALID,537.834,VALID,24.078,VALID,148.0,VALID,1.718,
2017-08-07, 09:00:06,VALID,918.377,VALID,0.0,VALID,65.889,VALID,540.918,VALID,24.046,VALID,139.0,VALID,1.502,
2017-08-07, 09:01:06,VALID,918.371,VALID,0.0,VALID,65.333,VALID,544.437,VALID,24.162,VALID,148.0,VALID,1.218,
2017-08-07, 09:02:06,VALID,918.365,VALID,0.0,VALID,64.883,VALID,547.774,VALID,24.306,VALID,141.0,VALID,1.47,
2017-08-07, 09:03:06,VALID,918.341,VALID,0.0,VALID,64.093,VALID,551.201,VALID,24.335,VALID,137.0,VALID,1.112,
2017-08-07, 09:04:06,VALID,918.316,VALID,0.0,VALID,64.241,VALID,554.476,VALID,24.396,VALID,138.0,VALID,1.356,
2017-08-07, 09:05:06,VALID,918.29,VALID,0.0,VALID,63.877,VALID,558.624,VALID,24.462,VALID,139.0,VALID,1.303,
2017-08-07, 09:06:06,VALID,918.276,VALID,0.0,VALID,63.099,VALID,561.657,VALID,24.539,VALID,139.0,VALID,0.938,
2017-08-07, 09:07:06,VALID,918.263,VALID,0.0,VALID,64.139,VALID,565.192,VALID,24.494,VALID,145.0,VALID,0.982,
2017-08-07, 09:08:06,VALID,918.273,VALID,0.0,VALID,63.093,VALID,568.041,VALID,24.664,VALID,183.0,VALID,0.875,
2017-08-07, 09:09:06,VALID,918.261,VALID,0.0,VALID,61.83,VALID,571.283,VALID,24.874,VALID,167.0,VALID,0.836,
2017-08-07, 09:10:06,VALID,918.26,VALID,0.0,VALID,62.939,VALID,574.631,VALID,25.031,VALID,138.0,VALID,1.127,
2017-08-07, 09:11:06,VALID,918.263,VALID,0.0,VALID,60.652,VALID,578.351,VALID,24.99,VALID,138.0,VALID,1.764,
2017-08-07, 09:12:06,VALID,918.273,VALID,0.0,VALID,59.626,VALID,581.784,VALID,24.734,VALID,156.0,VALID,1.84,
2017-08-07, 09:13:06,VALID,918.271,VALID,0.0,VALID,60.188,VALID,585.092,VALID,24.668,VALID,161.0,VALID,1.237,
2017-08-07, 09:14:06,VALID,918.271,VALID,0.0,VALID,61.16,VALID,587.752,VALID,24.858,VALID,138.0,VALID,1.394,
2017-08-07, 09:15:06,VALID,918.27,VALID,0.0,VALID,60.275,VALID,591.352,VALID,25.019,VALID,160.0,VALID,1.361,
2017-08-07, 09:16:06,VALID,918.253,VALID,0.0,VALID,59.969,VALID,593.787,VALID,25.024,VALID,148.0,VALID,1.839,
2017-08-07, 09:17:06,VALID,918.241,VALID,0.0,VALID,58.081,VALID,597.578,VALID,24.928,VALID,145.0,VALID,2.337,
2017-08-07, 09:18:06,VALID,918.245,VALID,0.0,VALID,58.749,VALID,601.32,VALID,24.817,VALID,137.0,VALID,1.959,
2017-08-07, 09:19:06,VALID,918.246,VALID,0.0,VALID,58.426,VALID,604.87,VALID,24.886,VALID,155.0,VALID,1.811,
2017-08-07, 09:20:06,VALID,918.258,VALID,0.0,VALID,57.025,VALID,607.52,VALID,24.972,VALID,140.0,VALID,1.422,
2017-08-07, 09:21:06,VALID,918.252,VALID,0.0,VALID,58.413,VALID,611.142,VALID,25.019,VALID,165.0,VALID,1.992,
2017-08-07, 09:22:06,VALID,918.26,VALID,0.0,VALID,59.584,VALID,613.944,VALID,25.06,VALID,146.0,VALID,1.968,
2017-08-07, 09:23:06,VALID,918.254,VALID,0.0,VALID,58.991,VALID,616.486,VALID,24.965,VALID,148.0,VALID,1.867,
2017-08-07, 09:24:06,VALID,918.244,VALID,0.0,VALID,56.33,VALID,620.863,VALID,24.932,VALID,133.0,VALID,1.738,
2017-08-07, 09:25:06,VALID,918.234,VALID,0.0,VALID,58.84,VALID,623.644,VALID,25.013,VALID,152.0,VALID,1.871,
2017-08-07, 09:26:06,VALID,918.223,VALID,0.0,VALID,58.765,VALID,625.689,VALID,24.956,VALID,133.0,VALID,1.5,
2017-08-07, 09:27:06,VALID,918.212,VALID,0.0,VALID,59.76,VALID,629.225,VALID,25.075,VALID,136.0,VALID,1.818,
2017-08-07, 09:28:06,VALID,918.201,VALID,0.0,VALID,59.188,VALID,632.186,VALID,25.151,VALID,130.0,VALID,1.363,
2017-08-07, 09:29:06,VALID,918.177,VALID,0.0,VALID,57.785,VALID,635.26,VALID,25.217,VALID,131.0,VALID,1.661,
2017-08-07, 09:30:06,VALID,918.177,VALID,0.0,VALID,57.316,VALID,638.431,VALID,25.352,VALID,172.0,VALID,1.15,
2017-08-07, 09:31:06,VALID,918.163,VALID,0.0,VALID,58.181,VALID,641.657,VALID,25.57,VALID,130.0,VALID,0.882,
2017-08-07, 09:32:06,VALID,918.156,VALID,0.0,VALID,56.356,VALID,644.951,VALID,25.688,VALID,173.0,VALID,1.269,
2017-08-07, 09:33:06,VALID,918.145,VALID,0.0,VALID,55.808,VALID,648.1,VALID,25.716,VALID,202.0,VALID,0.991,
2017-08-07, 09:34:06,VALID,918.138,VALID,0.0,VALID,57.472,VALID,651.022,VALID,25.907,VALID,131.0,VALID,0.923,
2017-08-07, 09:35:06,VALID,918.137,VALID,0.0,VALID,58.171,VALID,653.995,VALID,25.867,VALID,112.0,VALID,1.336,
2017-08-07, 09:36:06,VALID,918.158,VALID,0.0,VALID,59.534,VALID,656.983,VALID,25.931,VALID,162.0,VALID,1.04,
2017-08-07, 09:37:06,VALID,918.165,VALID,0.0,VALID,54.784,VALID,660.087,VALID,26.102,VALID,202.0,VALID,1.518,
2017-08-07, 09:38:06,VALID,918.168,VALID,0.0,VALID,55.498,VALID,663.358,VALID,26.026,VALID,259.0,VALID,0.732,
2017-08-07, 09:39:06,VALID,918.179,VALID,0.0,VALID,56.533,VALID,666.65,VALID,25.852,VALID,190.0,VALID,0.9,
2017-08-07, 09:40:06,VALID,918.176,VALID,0.0,VALID,54.817,VALID,670.345,VALID,25.945,VALID,183.0,VALID,1.053,
2017-08-07, 09:41:06,VALID,918.168,VALID,0.0,VALID,55.641,VALID,672.98,VALID,26.022,VALID,180.0,VALID,0.743,
2017-08-07, 09:42:06,VALID,918.15,VALID,0.0,VALID,56.257,VALID,676.047,VALID,26.038,VALID,183.0,VALID,0.324,
2017-08-07, 09:43:06,VALID,918.137,VALID,0.0,VALID,53.03,VALID,679.214,VALID,26.077,VALID,212.0,VALID,0.793,
2017-08-07, 09:44:06,VALID,918.112,VALID,0.0,VALID,55.985,VALID,681.722,VALID,26.192,VALID,123.0,VALID,0.567,
2017-08-07, 09:45:06,VALID,918.099,VALID,0.0,VALID,55.913,VALID,684.889,VALID,26.341,VALID,158.0,VALID,0.788,
2017-08-07, 09:46:06,VALID,918.084,VALID,0.0,VALID,54.927,VALID,687.721,VALID,26.493,VALID,124.0,VALID,0.846,
2017-08-07, 09:47:06,VALID,918.087,VALID,0.0,VALID,54.465,VALID,691.18,VALID,26.571,VALID,144.0,VALID,1.244,
2017-08-07, 09:48:06,VALID,918.08,VALID,0.0,VALID,53.74,VALID,693.374,VALID,26.463,VALID,176.0,VALID,0.734,
2017-08-07, 09:49:06,VALID,918.085,VALID,0.0,VALID,52.523,VALID,696.09,VALID,26.609,VALID,176.0,VALID,0.375,
2017-08-07, 09:50:06,VALID,918.08,VALID,0.0,VALID,52.63,VALID,700.077,VALID,26.66,VALID,128.0,VALID,0.99,
2017-08-07, 09:51:06,VALID,918.082,VALID,0.0,VALID,52.005,VALID,701.607,VALID,26.495,VALID,120.0,VALID,0.383,
2017-08-07, 09:52:06,VALID,918.085,VALID,0.0,VALID,51.033,VALID,702.957,VALID,26.708,VALID,159.0,VALID,0.371,
2017-08-07, 09:53:06,VALID,918.081,VALID,0.0,VALID,50.707,VALID,693.771,VALID,26.799,VALID,125.0,VALID,0.511,
2017-08-07, 09:54:06,VALID,918.091,VALID,0.0,VALID,50.227,VALID,682.312,VALID,26.838,VALID,211.0,VALID,1.237,
2017-08-07, 09:55:06,VALID,918.089,VALID,0.0,VALID,48.592,VALID,693.494,VALID,26.795,VALID,210.0,VALID,0.912,
2017-08-07, 09:56:06,VALID,918.08,VALID,0.0,VALID,49.211,VALID,708.626,VALID,26.752,VALID,208.0,VALID,0.95,
2017-08-07, 09:57:06,VALID,918.071,VALID,0.0,VALID,50.76,VALID,717.441,VALID,26.823,VALID,195.0,VALID,1.115,
2017-08-07, 09:58:06,VALID,918.076,VALID,0.0,VALID,51.326,VALID,722.21,VALID,26.965,VALID,198.0,VALID,0.538,
2017-08-07, 09:59:06,VALID,918.062,VALID,0.0,VALID,53.151,VALID,724.468,VALID,27.112,VALID,106.0,VALID,0.109,
2017-08-07, 10:00:06,VALID,918.058,VALID,0.0,VALID,52.538,VALID,721.863,VALID,27.298,VALID,212.0,VALID,0.439,
2017-08-07, 10:01:06,VALID,918.044,VALID,0.0,VALID,51.006,VALID,709.436,VALID,27.364,VALID,150.0,VALID,0.757,
2017-08-07, 10:02:06,VALID,918.04,VALID,0.0,VALID,50.626,VALID,708.582,VALID,27.254,VALID,156.0,VALID,0.804,
2017-08-07, 10:03:06,VALID,918.039,VALID,0.0,VALID,50.863,VALID,709.716,VALID,27.115,VALID,163.0,VALID,0.601,
2017-08-07, 10:04:06,VALID,918.03,VALID,0.0,VALID,51.836,VALID,731.743,VALID,27.05,VALID,130.0,VALID,0.588,
2017-08-07, 10:05:06,VALID,918.026,VALID,0.0,VALID,50.894,VALID,727.041,VALID,27.094,VALID,85.0,VALID,0.725,
2017-08-07, 10:06:06,VALID,918.029,VALID,0.0,VALID,51.189,VALID,729.319,VALID,27.192,VALID,123.0,VALID,0.531,
2017-08-07, 10:07:06,VALID,918.008,VALID,0.0,VALID,51.056,VALID,734.775,VALID,27.37,VALID,205.0,VALID,1.377,
2017-08-07, 10:08:06,VALID,918.022,VALID,0.0,VALID,50.549,VALID,729.67,VALID,27.265,VALID,240.0,VALID,0.952,
2017-08-07, 10:09:06,VALID,918.016,VALID,0.0,VALID,52.552,VALID,729.335,VALID,27.148,VALID,258.0,VALID,0.46,
2017-08-07, 10:10:06,VALID,918.005,VALID,0.0,VALID,52.137,VALID,742.796,VALID,27.181,VALID,197.0,VALID,0.654,
2017-08-07, 10:11:06,VALID,917.991,VALID,0.0,VALID,52.821,VALID,744.177,VALID,27.328,VALID,221.0,VALID,0.587,
2017-08-07, 10:12:06,VALID,917.988,VALID,0.0,VALID,54.252,VALID,743.636,VALID,27.468,VALID,276.0,VALID,0.482,
2017-08-07, 10:13:06,VALID,917.978,VALID,0.0,VALID,54.013,VALID,754.468,VALID,27.52,VALID,287.0,VALID,0.185,
2017-08-07, 10:14:06,VALID,917.989,VALID,0.0,VALID,55.006,VALID,742.709,VALID,27.609,VALID,314.0,VALID,0.093,
2017-08-07, 10:15:06,VALID,917.996,VALID,0.0,VALID,53.761,VALID,708.837,VALID,27.708,VALID,240.0,VALID,0.466,
2017-08-07, 10:16:06,VALID,918.006,VALID,0.0,VALID,50.93,VALID,696.622,VALID,27.679,VALID,225.0,VALID,0.615,
2017-08-07, 10:17:06,VALID,918.03,VALID,0.0,VALID,51.386,VALID,711.754,VALID,27.541,VALID,239.0,VALID,0.344,
2017-08-07, 10:18:06,VALID,918.061,VALID,0.0,VALID,52.052,VALID,730.838,VALID,27.573,VALID,240.0,VALID,0.137,
2017-08-07, 10:19:06,VALID,918.063,VALID,0.0,VALID,52.352,VALID,741.689,VALID,27.755,VALID,25.0,VALID,0.211,
2017-08-07, 10:20:06,VALID,918.065,VALID,0.0,VALID,50.498,VALID,749.321,VALID,27.939,VALID,9.0,VALID,0.861,
2017-08-07, 10:21:06,VALID,918.059,VALID,0.0,VALID,50.02,VALID,759.76,VALID,27.938,VALID,10.0,VALID,0.623,
2017-08-07, 10:22:06,VALID,918.049,VALID,0.0,VALID,49.163,VALID,771.192,VALID,27.993,VALID,337.0,VALID,0.998,
2017-08-07, 10:23:06,VALID,918.051,VALID,0.0,VALID,47.352,VALID,779.03,VALID,28.016,VALID,318.0,VALID,1.161,
2017-08-07, 10:24:06,VALID,918.05,VALID,0.0,VALID,45.956,VALID,771.097,VALID,27.765,VALID,283.0,VALID,0.354,
2017-08-07, 10:25:06,VALID,918.055,VALID,0.0,VALID,46.418,VALID,780.934,VALID,27.582,VALID,252.0,VALID,1.22,
2017-08-07, 10:26:06,VALID,918.057,VALID,0.0,VALID,46.948,VALID,778.425,VALID,27.18,VALID,251.0,VALID,0.702,
2017-08-07, 10:27:06,VALID,918.065,VALID,0.0,VALID,48.234,VALID,788.059,VALID,26.974,VALID,263.0,VALID,0.964,
2017-08-07, 10:28:06,VALID,918.074,VALID,0.0,VALID,48.293,VALID,786.386,VALID,26.696,VALID,242.0,VALID,1.003,
2017-08-07, 10:29:06,VALID,918.08,VALID,0.0,VALID,48.92,VALID,781.768,VALID,26.647,VALID,207.0,VALID,1.184,
2017-08-07, 10:30:06,VALID,918.069,VALID,0.0,VALID,49.101,VALID,772.165,VALID,26.812,VALID,225.0,VALID,0.956,
2017-08-07, 10:31:06,VALID,918.067,VALID,0.0,VALID,48.979,VALID,791.547,VALID,26.964,VALID,297.0,VALID,0.611,
2017-08-07, 10:32:06,VALID,918.053,VALID,0.0,VALID,50.398,VALID,795.561,VALID,27.224,VALID,357.0,VALID,0.577,
2017-08-07, 10:33:06,VALID,918.052,VALID,0.0,VALID,50.311,VALID,796.903,VALID,27.506,VALID,350.0,VALID,0.367,
2017-08-07, 10:34:06,VALID,918.066,VALID,0.0,VALID,48.725,VALID,802.318,VALID,27.767,VALID,255.0,VALID,0.814,
2017-08-07, 10:35:06,VALID,918.066,VALID,0.0,VALID,46.449,VALID,806.408,VALID,27.663,VALID,230.0,VALID,0.996,